EN

Hourly Weather Belz

Today, 21 October, Wednesday

Time Temperature Precipitation Wind Pressure Humidity
00:00 +6°C° 0 mm 4 mps 749 mmHg 78%
01:00 +5°C° 0 mm 4 mps 748 mmHg 77%
02:00 +5°C° 0 mm 4 mps 748 mmHg 75%
03:00 +5°C° 0 mm 4 mps 748 mmHg 74%
04:00 +6°C° 0 mm 4 mps 747 mmHg 73%
05:00 +6°C° 0 mm 4 mps 747 mmHg 72%
06:00 +6°C° 0 mm 4 mps 747 mmHg 72%
07:00 +6°C° 0 mm 4 mps 747 mmHg 71%
08:00 +6°C° 0 mm 4 mps 747 mmHg 71%
09:00 +7°C° 0 mm 5 mps 747 mmHg 67%
10:00 +9°C° 0 mm 6 mps 747 mmHg 64%
11:00 +10°C° 0 mm 7 mps 747 mmHg 60%
12:00 +10°C° 0 mm 6 mps 746 mmHg 59%
13:00 +11°C° 0 mm 6 mps 746 mmHg 58%
14:00 +13°C° 0 mm 6 mps 746 mmHg 58%
15:00 +12°C° 0 mm 5 mps 745 mmHg 61%
16:00 +12°C° 0 mm 4 mps 745 mmHg 64%
17:00 +11°C° 0 mm 3 mps 744 mmHg 67%
18:00 +10°C° 0 mm 3 mps 745 mmHg 67%
19:00 +10°C° 0 mm 3 mps 745 mmHg 67%
20:00 +8°C° 0 mm 4 mps 745 mmHg 68%
21:00 +8°C° 0 mm 4 mps 745 mmHg 69%
22:00 +9°C° 0 mm 3 mps 745 mmHg 70%
23:00 +9°C° 0 mm 3 mps 745 mmHg 71%

Tomorrow, 22 October, Thursday

Time Temperature Precipitation Wind Pressure Humidity
00:00 +8°C° 0 mm 3 mps 745 mmHg 73%
01:00 +8°C° 0 mm 3 mps 745 mmHg 75%
02:00 +8°C° 0 mm 3 mps 745 mmHg 77%
03:00 +8°C° 0 mm 3 mps 745 mmHg 78%
04:00 +8°C° 0 mm 3 mps 745 mmHg 79%
05:00 +7°C° 0 mm 4 mps 745 mmHg 80%
06:00 +8°C° 0 mm 4 mps 745 mmHg 78%
07:00 +8°C° 0 mm 4 mps 745 mmHg 77%
08:00 +9°C° 0 mm 5 mps 746 mmHg 76%
09:00 +10°C° 0 mm 5 mps 746 mmHg 70%
10:00 +13°C° 0 mm 6 mps 746 mmHg 65%
11:00 +15°C° 0 mm 7 mps 746 mmHg 60%
12:00 +16°C° 0 mm 6 mps 746 mmHg 58%
13:00 +17°C° 0 mm 6 mps 746 mmHg 56%
14:00 +19°C° 0 mm 6 mps 746 mmHg 54%
15:00 +17°C° 0 mm 5 mps 745 mmHg 57%
16:00 +15°C° 0 mm 4 mps 745 mmHg 60%
17:00 +14°C° 0 mm 4 mps 745 mmHg 64%
18:00 +13°C° 0 mm 4 mps 745 mmHg 65%
19:00 +12°C° 0 mm 4 mps 745 mmHg 67%
20:00 +11°C° 0 mm 4 mps 746 mmHg 69%
21:00 +11°C° 0 mm 4 mps 746 mmHg 71%
22:00 +10°C° 0 mm 3 mps 745 mmHg 73%
23:00 +10°C° 0 mm 3 mps 745 mmHg 75%

Day after tomorrow, 23 October, Friday

Time Temperature Precipitation Wind Pressure Humidity
00:00 +10°C° 0 mm 3 mps 745 mmHg 77%
01:00 +9°C° 0 mm 3 mps 745 mmHg 79%
02:00 +9°C° 0 mm 3 mps 745 mmHg 82%
03:00 +9°C° 0 mm 3 mps 745 mmHg 82%
04:00 +9°C° 0 mm 3 mps 745 mmHg 83%
05:00 +9°C° 0 mm 3 mps 745 mmHg 84%
06:00 +9°C° 0 mm 3 mps 745 mmHg 84%
07:00 +9°C° 0 mm 3 mps 744 mmHg 84%
08:00 +9°C° 0 mm 3 mps 744 mmHg 84%
09:00 +11°C° 0 mm 4 mps 744 mmHg 78%
10:00 +13°C° 0 mm 4 mps 744 mmHg 72%
11:00 +15°C° 0 mm 4 mps 744 mmHg 66%
12:00 +15°C° 0 mm 4 mps 743 mmHg 66%
13:00 +17°C° 0 mm 4 mps 743 mmHg 66%
14:00 +17°C° 0 mm 4 mps 742 mmHg 65%
15:00 +15°C° 0 mm 4 mps 742 mmHg 69%
16:00 +14°C° 0 mm 4 mps 742 mmHg 72%
17:00 +13°C° 0 mm 3 mps 742 mmHg 75%
18:00 +12°C° 0 mm 3 mps 742 mmHg 78%
19:00 +12°C° 0 mm 3 mps 742 mmHg 81%
20:00 +11°C° 0 mm 3 mps 742 mmHg 84%
21:00 +10°C° 0 mm 3 mps 742 mmHg 86%
22:00 +10°C° 0 mm 3 mps 742 mmHg 87%
23:00 +10°C° 0 mm 3 mps 742 mmHg 88%

24 October, Saturday

Time Temperature Precipitation Wind Pressure Humidity
00:00 +10°C° 0 mm 3 mps 742 mmHg 88%
01:00 +10°C° 0 mm 3 mps 742 mmHg 87%
02:00 +10°C° 0 mm 3 mps 742 mmHg 86%
03:00 +10°C° 0 mm 3 mps 741 mmHg 86%
04:00 +10°C° 0 mm 2 mps 741 mmHg 85%
05:00 +10°C° 0 mm 2 mps 741 mmHg 85%
06:00 +10°C° 0 mm 2 mps 741 mmHg 85%
07:00 +10°C° 0 mm 2 mps 741 mmHg 85%
08:00 +12°C° 0 mm 2 mps 741 mmHg 86%
09:00 +11°C° 0 mm 3 mps 741 mmHg 85%
10:00 +11°C° 0 mm 3 mps 741 mmHg 84%
11:00 +12°C° 0 mm 3 mps 741 mmHg 84%
12:00 +12°C° 0.4 mm 4 mps 741 mmHg 87%
13:00 +12°C° 0.4 mm 4 mps 741 mmHg 90%
14:00 +12°C° 0.4 mm 5 mps 741 mmHg 93%
15:00 +12°C° 0.2 mm 5 mps 742 mmHg 92%
16:00 +12°C° 0.2 mm 5 mps 742 mmHg 91%
17:00 +12°C° 0.2 mm 5 mps 742 mmHg 90%
18:00 +12°C° 0 mm 5 mps 742 mmHg 90%
19:00 +12°C° 0 mm 5 mps 743 mmHg 91%
20:00 +11°C° 0 mm 4 mps 743 mmHg 91%
21:00 +11°C° 0 mm 4 mps 743 mmHg 92%
22:00 +10°C° 0 mm 5 mps 744 mmHg 92%
23:00 +9°C° 0 mm 5 mps 744 mmHg 93%

25 October, Sunday

Time Temperature Precipitation Wind Pressure Humidity
00:00 +10°C° 0 mm 4 mps 744 mmHg 93%
01:00 +8°C° 0 mm 4 mps 744 mmHg 93%
02:00 +8°C° 0 mm 4 mps 745 mmHg 92%
03:00 +7°C° 0 mm 4 mps 745 mmHg 93%
04:00 +8°C° 0 mm 3 mps 745 mmHg 93%
05:00 +7°C° 0 mm 3 mps 745 mmHg 94%
06:00 +7°C° 0 mm 3 mps 746 mmHg 94%
07:00 +8°C° 0 mm 3 mps 746 mmHg 94%
08:00 +8°C° 0 mm 3 mps 746 mmHg 94%
09:00 +9°C° 0 mm 3 mps 747 mmHg 88%
10:00 +10°C° 0 mm 3 mps 747 mmHg 82%
11:00 +11°C° 0 mm 3 mps 747 mmHg 76%
12:00 +13°C° 0 mm 2 mps 747 mmHg 71%
13:00 +13°C° 0 mm 2 mps 747 mmHg 67%
14:00 +13°C° 0 mm 2 mps 747 mmHg 63%
15:00 +13°C° 0 mm 1 mps 746 mmHg 67%
16:00 +12°C° 0 mm 1 mps 746 mmHg 70%
17:00 +11°C° 0 mm 1 mps 746 mmHg 73%
18:00 +10°C° 0 mm 1 mps 746 mmHg 76%
19:00 +10°C° 0 mm 1 mps 746 mmHg 78%
20:00 +9°C° 0 mm 1 mps 746 mmHg 80%
21:00 +8°C° 0 mm 2 mps 746 mmHg 82%
22:00 +7°C° 0 mm 2 mps 747 mmHg 85%
23:00 +7°C° 0 mm 2 mps 747 mmHg 87%

26 October, Monday

Time Temperature Precipitation Wind Pressure Humidity
00:00 +7°C° 0 mm 2 mps 746 mmHg 88%
01:00 +5°C° 0 mm 3 mps 746 mmHg 90%
02:00 +5°C° 0 mm 3 mps 746 mmHg 91%
03:00 +5°C° 0 mm 3 mps 746 mmHg 92%
04:00 +5°C° 0 mm 3 mps 746 mmHg 92%
05:00 +5°C° 0 mm 3 mps 746 mmHg 93%
06:00 +5°C° 0 mm 3 mps 746 mmHg 92%
07:00 +5°C° 0 mm 3 mps 746 mmHg 92%
08:00 +5°C° 0 mm 3 mps 746 mmHg 91%
09:00 +7°C° 0 mm 4 mps 746 mmHg 85%
10:00 +9°C° 0 mm 5 mps 746 mmHg 79%
11:00 +10°C° 0 mm 5 mps 746 mmHg 73%
12:00 +12°C° 0 mm 5 mps 746 mmHg 71%
13:00 +13°C° 0 mm 5 mps 746 mmHg 68%
14:00 +14°C° 0 mm 6 mps 745 mmHg 66%
15:00 +13°C° 0 mm 5 mps 745 mmHg 69%
16:00 +12°C° 0 mm 5 mps 745 mmHg 72%
17:00 +11°C° 0 mm 4 mps 745 mmHg 76%
18:00 +10°C° 0 mm 4 mps 745 mmHg 77%
19:00 +8°C° 0 mm 5 mps 745 mmHg 79%
20:00 +8°C° 0 mm 5 mps 745 mmHg 80%
21:00 +7°C° 0 mm 5 mps 745 mmHg 81%
22:00 +7°C° 0 mm 5 mps 745 mmHg 82%
23:00 +7°C° 0 mm 4 mps 745 mmHg 83%

27 October, Tuesday

Time Temperature Precipitation Wind Pressure Humidity
00:00 +7°C° 0 mm 4 mps 745 mmHg 82%
01:00 +7°C° 0 mm 4 mps 745 mmHg 81%
02:00 +7°C° 0 mm 4 mps 745 mmHg 80%
03:00 +6°C° 0 mm 4 mps 745 mmHg 81%
04:00 +6°C° 0 mm 4 mps 745 mmHg 82%
05:00 +6°C° 0 mm 4 mps 745 mmHg 84%
06:00 +6°C° 0 mm 4 mps 745 mmHg 85%
07:00 +6°C° 0 mm 4 mps 745 mmHg 86%
08:00 +7°C° 0 mm 3 mps 745 mmHg 87%
09:00 +8°C° 0 mm 4 mps 745 mmHg 83%
10:00 +10°C° 0 mm 4 mps 745 mmHg 80%
11:00 +12°C° 0 mm 4 mps 745 mmHg 76%
12:00 +13°C° 0 mm 4 mps 745 mmHg 74%
13:00 +14°C° 0 mm 4 mps 745 mmHg 72%
14:00 +16°C° 0 mm 3 mps 745 mmHg 69%
15:00 +14°C° 0 mm 3 mps 745 mmHg 74%
16:00 +13°C° 0 mm 3 mps 745 mmHg 78%
17:00 +13°C° 0 mm 2 mps 745 mmHg 82%
18:00 +12°C° 0 mm 3 mps 746 mmHg 84%
19:00 +11°C° 0 mm 3 mps 746 mmHg 87%
20:00 +11°C° 0 mm 4 mps 746 mmHg 89%
21:00 +10°C° 0 mm 3 mps 746 mmHg 90%
22:00 +10°C° 0 mm 3 mps 746 mmHg 90%
23:00 +9°C° 0 mm 3 mps 747 mmHg 91%
Show more

We Need Your Consent

Meteoprog and our Service Providers may store and access personal data such as cookies, device identifiers or other similar technologies on your device and process such data to personalise content and ads, as well as provide social media features and to analyse the traffic.

  • Store and/or access information on your device

    Cookies, device identifiers or other information can be stored or accessed on your device for the purposes indicated above.

  • Personalised ads and content, ad and content measurement, audience insights, and products development

    Ads and content can be personalised based on a profile. More data can be added to better personalise ads and content. Ad and content performance can be measured. Insights about the audience who saw the ads and content can be derived. Such data can be used to develop or improve user’s experience, systems and software.

By clicking ‘I Agree’ you will allow the use of indicated cookies, device identifiers, web beacons or other similar technologies. Your settings can be changed in the browser on your device.

For certain purposes, legitimate interests may be relied on, rather than consent. You can read more about this in our Privacy and Cookie Policy.